2021-050A (48840 NORAD) Tracking and Keplerian Element Data

This shows tracking and keplerian element data for the satellite.

Feedback or suggestion? Click here.




ElementValue
Catalog48840
Name2021-050A
Epoch Orbit1917
Epoch Day288.0700163
Epoch Year2021
RAAN357.9226
Inclination97.5018
Eccentricity0.0011398
Argument of Perigee186.419
Mean Anonmoly267.7529
Mean Motion15.24141137
Decay Rate-7.3E-07
L11 48840U 21050A 21288.07001630 -.00000073 00000-0 00000+0 0 9990
L22 48840 97.5018 357.9226 0011398 186.4190 267.7529 15.24141137 19176

Live tracking and technical data element details for 2021-050A (NORAD 48840). 2021-050A can be tracked NOW for your location showing map with azimuth and elevation plus other details from your city location.

Track the satellite on the map from your city or location and see movement details for azimuth, elevation, latitude, longitude, range, height, and movement on the map or in text.







IsCatalogInMostPopularTable: catalog: 48840, numindb: 34
Update: records affected: 1



GetName: 48840 2021-050A

Hit Count: updated at: Tue, 19 Oct 2021 09:35:42 GMT